Content
SEND FEEDBACK

Daily
Averages
Monthly
Summary
United States of America

PLACERVILLE, CALIFORNIA


Home > North America > United States > California
Elevation: 2590 feet     Latitude: 38 43N     Longitude: 120 45W

WEATHER
 
SELECT A DAY
Number of Records: 93,184;   Date Range: 7/10/09 - 7/10/14
 
SHARE

PRINT THIS DATA

[ ← Previous Day ]
WEATHER ALMANAC - NOVEMBER 5, 2013
[ Next Day → ]
[ °C ]   °F
Weather ElementAverageHighLow
Temperature52.5 °F60.8 °F (1:55 pm)44.6 °F (6:55 am)
Dewpoint21.3 °F28.4 °F (10:35 pm)10.4 °F (1:35 am)
Humidity30 %46 % (10:35 pm)20 % (1:35 am)
Barometer30.18 in30.28 in (11:15 pm)30.06 in (12:35 am)
Wind Speed2.2 mph12.7 mph (12:35 am)
Weather ElementAverage
Visibility10 mi
Wind DirectionENE (66.9 °)

Weather ElementTotal
Precipitation---
Heating Degree Days12.3 (Base 65)
Growing Degree Days2.7 (Base 50)
Averaged from 70 records on November 5, 2013
WEATHER CONDITIONS BREAKOUT
WIND DIRECTION BREAKOUT
WEATHER BY HOUR - NOVEMBER 5, 2013
[ °C ]   °F
Local TimeTemperatureDewpointHumidityBarometerVisibilityWind DirectionWind SpeedGust SpeedPrecipitationEventsConditions
12:35 AM48.2 °F15.8 °F27 %30.06 in10.0 miENE (70°)12.7 mphClear
12:55 AM48.2 °F14.0 °F25 %30.06 in10.0 miENE (70°)12.7 mphClear
1:15 AM50.0 °F14.0 °F24 %30.06 in10.0 miEast (80°)11.5 mphClear
1:35 AM50.0 °F10.4 °F20 %30.06 in10.0 miESE (110°)6.9 mphClear
1:55 AM50.0 °F10.4 °F20 %30.06 in10.0 miEast (80°)8.1 mphClear
2:15 AM50.0 °F10.4 °F20 %30.06 in10.0 miENE (70°)12.7 mphClear
2:35 AM50.0 °F14.0 °F24 %30.07 in10.0 miEast (90°)6.9 mphClear
2:55 AM48.2 °F14.0 °F25 %30.08 in10.0 miEast (80°)10.4 mphPartly Cloudy
3:15 AM48.2 °F12.2 °F24 %30.09 in10.0 miCalmScattered Clouds
3:35 AM48.2 °F12.2 °F24 %30.10 in10.0 miCalmPartly Cloudy
3:55 AM46.4 °F12.2 °F25 %30.10 in10.0 miCalmClear
4:15 AM46.4 °F12.2 °F25 %30.11 in10.0 miCalmClear
4:35 AM46.4 °F12.2 °F25 %30.11 in10.0 miSE (130°)3.5 mphClear
4:55 AM48.2 °F12.2 °F24 %30.11 in10.0 miCalmClear
5:15 AM48.2 °F12.2 °F24 %30.11 in10.0 miCalmClear
5:35 AM48.2 °F14.0 °F25 %30.12 in10.0 miCalmClear
5:55 AM48.2 °F14.0 °F25 %30.13 in10.0 miCalmClear
6:15 AM46.4 °F14.0 °F27 %30.14 in10.0 miNorth (360°)3.5 mphClear
6:35 AM46.4 °F15.8 °F29 %30.15 in10.0 miNNW (330°)3.5 mphClear
6:55 AM44.6 °F15.8 °F31 %30.16 in10.0 miCalmClear
7:15 AM46.4 °F15.8 °F29 %30.17 in10.0 miCalmClear
7:35 AM46.4 °F17.6 °F32 %30.18 in10.0 miCalmClear
7:55 AM48.2 °F19.4 °F32 %30.17 in10.0 miCalmClear
8:15 AM50.0 °F19.4 °F30 %30.18 in10.0 miCalmClear
8:35 AM50.0 °F17.6 °F28 %30.18 in10.0 miCalmClear
8:55 AM50.0 °F19.4 °F30 %30.19 in10.0 miCalmClear
9:15 AM53.6 °F17.6 °F24 %30.20 in10.0 miCalmClear
9:35 AM55.4 °F19.4 °F25 %30.19 in10.0 miCalmClear
9:55 AM55.4 °F23.0 °F29 %30.20 in10.0 miCalmClear
10:15 AM57.2 °F24.8 °F29 %30.20 in10.0 miCalmClear
10:35 AM57.2 °F23.0 °F27 %30.20 in10.0 miWest (280°)3.5 mphClear
10:55 AM57.2 °F23.0 °F27 %30.20 in10.0 miWest (280°)3.5 mphClear
11:15 AM57.2 °F23.0 °F27 %30.20 in10.0 miCalmClear
11:35 AM57.2 °F23.0 °F27 %30.19 in10.0 miWNW (290°)5.8 mphClear
11:55 AM59.0 °F23.0 °F25 %30.19 in10.0 miWest (280°)3.5 mphClear
12:15 PM59.0 °F24.8 °F27 %30.18 in10.0 miWNW (300°)5.8 mphClear
12:35 PM59.0 °F24.8 °F27 %30.18 in10.0 miWest (280°)9.2 mphClear
12:55 PM59.0 °F24.8 °F27 %30.18 in10.0 miWNW (290°)4.6 mphClear
1:15 PM59.0 °F24.8 °F27 %30.18 in10.0 miNW (310°)5.8 mphClear
1:35 PM59.0 °F24.8 °F27 %30.17 in10.0 miCalmClear
1:55 PM60.8 °F24.8 °F25 %30.17 in10.0 miWNW (290°)4.6 mphClear
2:15 PM59.0 °F24.8 °F27 %30.17 in10.0 miWest (280°)4.6 mphClear
2:35 PM59.0 °F24.8 °F27 %30.17 in10.0 miCalmClear
2:55 PM60.8 °F24.8 °F25 %30.17 in10.0 miCalmClear
3:15 PM59.0 °F24.8 °F27 %30.18 in10.0 miCalmClear
3:35 PM59.0 °F24.8 °F27 %30.18 in10.0 miCalmClear
3:55 PM57.2 °F26.6 °F31 %30.19 in10.0 miCalmClear
4:15 PM57.2 °F26.6 °F31 %30.19 in10.0 miCalmClear
4:35 PM57.2 °F26.6 °F31 %30.19 in10.0 miCalmClear
4:55 PM55.4 °F26.6 °F33 %30.20 in10.0 miCalmClear
5:15 PM55.4 °F26.6 °F33 %30.20 in10.0 miCalmClear
5:35 PM55.4 °F26.6 °F33 %30.21 in10.0 miCalmClear
5:55 PM55.4 °F26.6 °F33 %30.21 in10.0 miCalmClear
6:15 PM55.4 °F26.6 °F33 %30.21 in10.0 miCalmPartly Cloudy
6:35 PM53.6 °F26.6 °F35 %30.22 in10.0 miCalmPartly Cloudy
6:55 PM53.6 °F26.6 °F35 %30.22 in10.0 miCalmClear
7:15 PM53.6 °F26.6 °F35 %30.22 in10.0 miCalmClear
7:35 PM53.6 °F26.6 °F35 %30.23 in10.0 miCalmMostly Cloudy
7:55 PM53.6 °F26.6 °F35 %30.24 in10.0 miCalmMostly Cloudy
8:15 PM51.8 °F26.6 °F38 %30.24 in10.0 miCalmScattered Clouds
8:35 PM51.8 °F26.6 °F38 %30.24 in10.0 miCalmOvercast
8:55 PM48.2 °F26.6 °F43 %30.25 in10.0 miEast (100°)3.5 mphOvercast
9:15 PM50.0 °F26.6 °F40 %30.26 in10.0 miCalmOvercast
9:35 PM50.0 °F26.6 °F40 %30.26 in10.0 miCalmOvercast
9:55 PM51.8 °F26.6 °F38 %30.27 in10.0 miCalmOvercast
10:35 PM48.2 °F28.4 °F46 %30.27 in10.0 miCalmMostly Cloudy
10:55 PM50.0 °F28.4 °F43 %30.27 in10.0 miCalmMostly Cloudy
11:15 PM50.0 °F28.4 °F43 %30.28 in10.0 miCalmOvercast
11:35 PM48.2 °F28.4 °F46 %30.28 in10.0 miESE (110°)4.6 mphScattered Clouds
11:55 PM48.2 °F28.4 °F46 %30.27 in7.0 miESE (120°)5.8 mphScattered Clouds
Hourly data recorded from KPVF, located miles away from Placerville, California







STORIES FROM OUR PARTNERS